[[{"header":{"parameterUnit":"m.s-1","parameterCategory":1,"la1":30.2991,"la2":30.254,"lo1":-89.0895,"lo2":-89.0444,"dy":0.0017,"dx":0.0017,"nx":28,"ny":28,"refTime":"2025-07-30T21:00:00:Z","depth":0,"parameterNumber":2,"parameterNumberName":"U-component_of_WINDS"},"data":[0,0,0,0,0,0,0,0,0,0,0,0,0,0,0,0,0,0,0,0,0,0,0,0,0,0,0,0,0,0,0,0,0,0,0,0,0,0,0,0,0,0,0,0,0,0,0,0,0,0,0,0,0,0,0,0,0,0,1.0552,1.0552,0,1.06,1.06,1.0601,1.0587,1.0586,1.0585,1.0585,1.0635,1.0637,1.0639,0,0,0,0,0,0,0,0,0,0,0,0,0,1.0449,1.0451,1.0552,1.0552,1.0553,1.06,1.06,1.0601,1.0588,1.0586,1.0585,1.0584,1.0634,1.0637,1.0639,0,0,0,0,0,0,0,0,0,0,0,0,0,1.0495,1.0451,1.0551,1.0552,1.0552,1.06,1.06,1.0601,1.0588,1.0586,1.0585,1.0583,1.0633,1.0636,1.064,1.069,0,0,1.065,1.0652,0,0,0,0,0,0,0,0,1.0492,1.0499,1.0551,1.0552,1.0552,1.0586,1.0583,1.0631,1.0588,1.0574,1.0584,1.0583,1.062,1.0624,1.0637,1.0692,1.0695,1.065,1.0652,1.0654,1.0655,0,0,0,0,0,0,0,1.0489,1.0497,1.0571,1.0552,1.0553,1.055,1.0555,1.0592,1.0605,1.0575,1.0575,1.058,1.062,1.0633,1.0638,1.0695,1.065,1.0653,1.0655,1.0657,1.0795,1.0797,0,0,0,0,0,0,1.0485,1.0494,1.0569,1.0572,1.0518,1.0553,1.0558,1.0577,1.0604,1.0607,1.0582,1.058,1.0628,1.0634,1.0639,1.07,1.0654,1.0657,1.0659,1.0793,1.0795,1.0797,0,0,0,0,0,0,1.0483,1.0492,1.0567,1.0533,1.0542,1.0556,1.0577,1.0578,1.0592,1.0609,1.0611,1.0593,1.0627,1.0635,1.0677,1.0701,1.0659,1.0662,1.0792,1.0794,1.0796,1.0821,0,0,0,0,0,0,1.048,1.0491,1.051,1.0533,1.0544,1.0604,1.0578,1.058,1.0598,1.0595,1.062,1.0623,1.0627,1.0673,1.0681,1.0705,1.0664,1.0789,1.0793,1.0796,1.0818,1.0824,1.0829,0,0,0,0,0,1.0477,1.0516,1.0511,1.0521,1.0568,1.0606,1.0612,1.0615,1.06,1.0619,1.063,1.0622,1.0698,1.0677,1.0686,1.0712,1.0788,1.0792,1.0795,1.0816,1.0823,1.0829,0,0,0,0,0,0,1.0495,1.0519,1.0514,1.0562,1.0582,1.0603,1.0627,1.0623,1.0648,1.0645,1.0648,1.0654,1.0698,1.0709,1.0686,1.0762,1.074,1.0746,1.0753,1.076,1.0765,1.0761,1.0667,0,0,0,0,0,1.0505,1.0533,1.0552,1.0592,1.0603,1.0613,1.063,1.0631,1.0652,1.066,1.0675,1.0696,1.0724,1.0743,1.077,1.082,1.0825,1.0842,1.0848,1.0852,1.0857,1.0884,1.0892,1.0809,1.0809,1.0809,0,0,1.0525,1.0541,1.0559,1.0596,1.0612,1.0641,1.0621,1.0653,1.0675,1.0665,1.0706,1.0718,1.0742,1.0788,1.081,1.0799,1.0881,1.0857,1.086,1.0863,1.0889,1.0896,1.0903,1.0812,1.0811,1.0811,0,0,1.0576,1.0591,1.0626,1.0642,1.0666,1.0674,1.0682,1.0705,1.0712,1.0753,1.0747,1.0773,1.0822,1.0839,1.0855,1.0913,1.0907,1.0922,1.095,1.0977,1.0983,1.0989,1.1009,1.1017,1.0927,1.0927,1.0927,0,1.0597,1.0641,1.0645,1.0677,1.0694,1.0687,1.0723,1.0739,1.077,1.0782,1.077,1.0832,1.0847,1.0898,1.0912,1.0925,1.0934,1.0919,1.0982,1.0988,1.0993,1.1013,1.102,1.0929,1.0928,1.0928,1.0928,0,1.0667,1.0697,1.0723,1.0753,1.0773,1.0807,1.0816,1.0836,1.0835,1.0844,1.0886,1.0905,1.0936,1.0948,1.0948,1.0999,1.0991,1.0981,1.0959,1.1003,1.1021,1.1028,1.0931,1.093,1.093,1.093,0,0,1.0729,1.0762,1.0771,1.0785,1.0812,1.0835,1.087,1.0899,1.0916,1.0939,1.0967,1.1009,1.0999,1.1017,1.1019,1.1042,1.1087,1.1029,1.1029,1.1038,1.1143,1.115,1.1159,1.1083,1.1085,1.1086,1.1141,0,1.0782,1.0841,1.0846,1.0899,1.0927,1.0922,1.0952,1.0971,1.0981,1.1006,1.1017,1.1046,1.1032,1.1042,1.1065,1.1077,1.1108,1.1073,1.111,1.1111,1.1102,1.1169,1.1176,1.1227,1.1148,1.115,1.1151,0,1.0851,1.0875,1.0932,1.0954,1.0966,1.0993,1.1021,1.1046,1.1068,1.1073,1.1093,1.1092,1.1127,1.1105,1.1153,1.1129,1.1145,1.1153,1.1155,1.1158,1.1132,1.1172,1.1243,1.1251,1.1162,1.1161,1.116,0,1.089,1.0937,1.0977,1.0989,1.1017,1.1035,1.1048,1.1069,1.1087,1.1112,1.1123,1.1152,1.1167,1.119,1.1197,1.118,1.1245,1.1224,1.125,1.125,1.1263,1.1262,1.1337,1.1275,1.1275,1.1275,1.1274,0,1.0947,1.0982,1.0995,1.1019,1.1057,1.1063,1.1101,1.1113,1.1132,1.1158,1.1156,1.1181,1.1189,1.1216,1.1222,1.1261,1.1268,1.1273,1.1274,1.1273,1.1272,1.1282,1.1278,1.1277,1.1276,1.1276,1.1275,0,1.0996,1.1007,1.1049,1.1073,1.1079,1.1107,1.1127,1.115,1.1159,1.1193,1.1201,1.1216,1.1247,1.1257,1.1295,1.1299,1.1344,1.1343,1.1337,1.1336,1.1362,1.1359,1.1445,1.1456,1.1388,1.1389,1.1389,0,1.1032,1.1058,1.1084,1.1102,1.1115,1.1144,1.1162,1.1169,1.1188,1.1216,1.1236,1.1268,1.1292,1.1343,1.1357,1.1386,1.1384,1.1413,1.1389,1.1386,1.1384,1.1382,1.1384,1.1417,1.1417,1.1418,1.1418,0,1.1093,1.1097,1.1123,1.1152,1.1174,1.1196,1.1218,1.1233,1.1243,1.1265,1.1297,1.1316,1.1355,1.1386,1.1415,1.1429,1.1425,1.1426,1.1434,1.1432,1.1427,1.1429,1.1348,1.1424,1.1423,1.1423,1.1423,1.1422,1.1136,1.1159,1.1181,1.1211,1.1228,1.1249,1.1272,1.1284,1.1311,1.1343,1.1346,1.138,1.1403,1.1442,1.1457,1.1484,1.1476,1.1487,1.149,1.1492,1.1494,1.1424,1.149,1.149,1.149,1.149,1.149,0,1.1196,1.121,1.1238,1.1268,1.1292,1.1287,1.1311,1.1331,1.1362,1.1383,1.1408,1.1445,1.1475,1.1492,1.1522,1.154,1.154,1.1548,1.1546,1.1549,1.15,1.149,1.1548,1.1548,1.1548,1.1548,1.1548,1.1548,1.123,1.1269,1.1276,1.1323,1.1338,1.1371,1.1385,1.1405,1.1422,1.1463,1.1488,1.1499,1.1518,1.155,1.1578,1.1582,1.1593,1.1602,1.1605,1.1558,1.1552,1.1547,1.1537,1.1604,1.1604,1.1652,1.1652,1.1652]},{"header":{"parameterUnit":"m.s-1","parameterCategory":1,"la1":30.2991,"la2":30.254,"lo1":-89.0895,"lo2":-89.0444,"dy":0.0017,"dx":0.0017,"nx":28,"ny":28,"refTime":"2025-07-30T21:00:00:Z","depth":0,"parameterNumber":3,"parameterNumberName":"V-component_of_WINDS"},"data":[0,0,0,0,0,0,0,0,0,0,0,0,0,0,0,0,0,0,0,0,0,0,0,0,0,0,0,0,0,0,0,0,0,0,0,0,0,0,0,0,0,0,0,0,0,0,0,0,0,0,0,0,0,0,0,0,0,0,3.4323,3.4323,0,3.4306,3.4306,3.4306,3.4254,3.4253,3.4252,3.4251,3.4234,3.4234,3.4235,0,0,0,0,0,0,0,0,0,0,0,0,0,3.431,3.4311,3.4323,3.4323,3.4322,3.4307,3.4306,3.4306,3.4254,3.4253,3.4252,3.425,3.4234,3.4234,3.4235,0,0,0,0,0,0,0,0,0,0,0,0,0,3.4307,3.4311,3.4323,3.4295,3.4292,3.4307,3.4306,3.4306,3.4255,3.4253,3.4251,3.425,3.4233,3.4234,3.4235,3.4275,0,0,3.4238,3.4238,0,0,0,0,0,0,0,0,3.4307,3.4307,3.4299,3.4297,3.4294,3.4281,3.4295,3.4296,3.4255,3.4269,3.4251,3.4249,3.4251,3.425,3.4251,3.4275,3.4274,3.4238,3.4239,3.4239,3.4239,0,0,0,0,0,0,0,3.4308,3.4308,3.4316,3.4299,3.4296,3.4283,3.4281,3.4295,3.427,3.4268,3.4264,3.4263,3.4249,3.425,3.425,3.4274,3.4238,3.4239,3.4239,3.424,3.4331,3.4332,0,0,0,0,0,0,3.4312,3.4308,3.4317,3.4316,3.4296,3.4285,3.4282,3.4287,3.4269,3.4265,3.4264,3.426,3.4249,3.4249,3.4249,3.4296,3.4239,3.424,3.424,3.4329,3.4331,3.4333,0,0,0,0,0,0,3.4312,3.4313,3.4318,3.4311,3.4311,3.4287,3.4292,3.4287,3.4288,3.4267,3.4262,3.427,3.4248,3.4248,3.4269,3.4294,3.424,3.4241,3.4327,3.4329,3.4332,3.4389,0,0,0,0,0,0,3.4312,3.4313,3.4328,3.4312,3.4311,3.4338,3.4294,3.4288,3.429,3.4285,3.4271,3.4267,3.4247,3.4268,3.427,3.4295,3.4242,3.4324,3.4328,3.4331,3.4385,3.4393,3.4401,0,0,0,0,0,3.4311,3.4344,3.4329,3.433,3.4329,3.4339,3.4339,3.4315,3.4292,3.4307,3.4293,3.4267,3.4292,3.4271,3.4273,3.4298,3.4323,3.4327,3.4331,3.4381,3.4392,3.44,0,0,0,0,0,0,3.4363,3.4342,3.4324,3.4353,3.4349,3.4331,3.4348,3.4327,3.4329,3.4324,3.4294,3.4291,3.4317,3.431,3.4287,3.4336,3.4303,3.4308,3.434,3.435,3.4358,3.4359,3.4243,0,0,0,0,0,3.4378,3.4388,3.4369,3.4396,3.4395,3.4372,3.4376,3.4358,3.4352,3.435,3.4338,3.4333,3.434,3.4344,3.4349,3.4384,3.438,3.4402,3.441,3.4416,3.4421,3.4439,3.4449,3.4347,3.4347,3.4347,0,0,3.4409,3.4398,3.4406,3.4406,3.4401,3.4412,3.4371,3.4384,3.4393,3.4352,3.4371,3.4363,3.4356,3.4384,3.4396,3.4379,3.4448,3.4422,3.4427,3.4428,3.4445,3.4454,3.4463,3.435,3.4349,3.4349,0,0,3.4471,3.4463,3.4486,3.4482,3.4474,3.4459,3.4465,3.4451,3.4443,3.4463,3.4433,3.4442,3.4454,3.445,3.445,3.4513,3.4489,3.4515,3.4557,3.4575,3.4583,3.459,3.4613,3.4622,3.452,3.452,3.452,0,3.4509,3.4525,3.45,3.4516,3.4517,3.4482,3.4505,3.4501,3.4496,3.4498,3.4478,3.4493,3.4486,3.4513,3.4529,3.453,3.4536,3.4516,3.4584,3.4591,3.4597,3.4619,3.4627,3.4523,3.4523,3.4522,3.4522,0,3.4574,3.4586,3.4605,3.4601,3.4605,3.4624,3.4602,3.4609,3.4591,3.4579,3.46,3.459,3.4593,3.4598,3.458,3.4623,3.4613,3.459,3.4555,3.4611,3.463,3.4638,3.4528,3.4527,3.4526,3.4525,0,0,3.4667,3.465,3.4658,3.4656,3.4646,3.4655,3.4673,3.4676,3.4683,3.468,3.4695,3.4707,3.4686,3.4686,3.4668,3.4684,3.4735,3.4658,3.4658,3.4673,3.4783,3.4801,3.4811,3.472,3.4721,3.4722,3.4784,0,3.4726,3.4756,3.4734,3.4768,3.478,3.4747,3.4763,3.4759,3.4748,3.4756,3.4744,3.4753,3.4724,3.4724,3.4738,3.4726,3.4757,3.4721,3.4734,3.4734,3.4736,3.4821,3.484,3.4898,3.4791,3.4793,3.4793,0,3.4798,3.48,3.4835,3.4824,3.4828,3.4843,3.4845,3.4853,3.4848,3.4839,3.484,3.4818,3.4836,3.4803,3.4827,3.4803,3.4807,3.4802,3.4804,3.4804,3.4767,3.4824,3.4916,3.4925,3.4805,3.4804,3.4803,0,3.4862,3.4874,3.4897,3.4897,3.4884,3.4896,3.4891,3.4885,3.4888,3.489,3.4892,3.4896,3.4898,3.4902,3.4882,3.486,3.4909,3.4874,3.4903,3.4903,3.4914,3.4914,3.5009,3.4917,3.4917,3.4917,3.4917,0,3.493,3.4953,3.4926,3.494,3.4966,3.4941,3.4967,3.4959,3.4954,3.4966,3.4938,3.495,3.4923,3.4933,3.4917,3.494,3.4941,3.4935,3.493,3.4937,3.4938,3.494,3.4935,3.4919,3.4918,3.4918,3.4918,0,3.5006,3.4989,3.5012,3.4999,3.4997,3.5016,3.5005,3.5018,3.5006,3.5022,3.5024,3.5005,3.5015,3.4996,3.5003,3.4993,3.5026,3.5015,3.5027,3.5024,3.5054,3.5052,3.5153,3.5166,3.5066,3.5067,3.5068,0,3.5051,3.5068,3.5058,3.5064,3.5061,3.5072,3.5076,3.5053,3.5059,3.5056,3.5069,3.5077,3.5082,3.51,3.5086,3.5092,3.5082,3.5117,3.5082,3.5089,3.5083,3.5082,3.5084,3.5124,3.5125,3.5126,3.5127,0,3.5132,3.5123,3.513,3.5135,3.5141,3.5143,3.5144,3.5151,3.5127,3.5134,3.5145,3.5149,3.5157,3.5165,3.5168,3.5164,3.5142,3.5138,3.5145,3.5152,3.5159,3.5157,3.5047,3.5136,3.5135,3.5134,3.5134,3.5133,3.5193,3.5208,3.5203,3.5213,3.5211,3.5213,3.5225,3.5215,3.5223,3.5228,3.5214,3.5228,3.5224,3.5226,3.5224,3.5234,3.5219,3.5229,3.5231,3.5234,3.5239,3.5158,3.5235,3.5234,3.5234,3.5234,3.5234,0,3.5273,3.5269,3.5278,3.5281,3.5289,3.5268,3.5268,3.5276,3.5288,3.5287,3.5293,3.5305,3.5314,3.5302,3.5308,3.5319,3.531,3.5322,3.5321,3.5321,3.5253,3.5246,3.533,3.533,3.533,3.533,3.533,3.533,3.5316,3.534,3.5331,3.5354,3.5349,3.5363,3.5365,3.5367,3.5365,3.5381,3.5388,3.538,3.5375,3.5381,3.5388,3.5385,3.5389,3.5405,3.5398,3.5334,3.5325,3.5316,3.531,3.5406,3.5406,3.5465,3.5465,3.5466]}]]